Regional Weather Roundup
Issued by NWS

Home | Current Version | Previous Version | Graphics & Text | Print | Product List | Glossary On
Versions: 1 2 3 4 5 6 7 8 9 10 11 12 13 14 15 16 17 18 19 20 21 22 23 24 25 26 27 28 29 30 31 32 33 34 35 36 37 38 39 40 41 42 43 44 45 46 47 48 49 50
000
ASUS43 KIND 310309
RWRIN

WEATHER ROUNDUP FOR INDIANA
NATIONAL WEATHER SERVICE INDIANAPOLIS IN
1000 PM EST FRI JAN 30 2015

NOTE: "FAIR" INDICATES FEW OR NO CLOUDS BELOW 12,000 FEET WITH NO
SIGNIFICANT WEATHER AND/OR OBSTRUCTIONS TO VISIBILITY.

* - STATION DOES NOT REPORT WEATHER SUCH AS PRECIPITATION OR FOG.

+ - STATION NOT QUALITY CONTROLLED BY THE NATIONAL WEATHER SERVICE.
    USE DATA WITH CAUTION...ESPECIALLY DEWPOINT AND RELATIVE
    HUMIDITY OBSERVATIONS.

INZ001>003-010>013-019-020-310400-
NORTHWEST INDIANA

CITY           SKY/WX    TMP DP  RH WIND       PRES   REMARKS
GARY /AIRPORT/ CLEAR     18  14  86 S3        30.41F
KNOX *+        CLEAR     19  10  68 SE3       30.42S
LA PORTE +     CLOUDY    18  14  84 CALM      30.41F
MICHIGAN CITY+ CLEAR     18  10  73 CALM      30.42F
MONTICELLO +   PTCLDY    23  17  78 S3        30.42F
RENSSELAER +   PTCLDY    27  21  80 CALM      30.42S
VALPARAISO     CLEAR     19  14  81 CALM      30.41F

$$

LMZ046-743>745-310400-
SOUTHERN LAKE MICHIGAN

STATION/POSITION TIME  TEMP WIND        PRES
                       AIR  DIR/SP/G
                 (UTC) (F)  (DEG/KT/KT) (MB)
MICHIGAN CITY    0300   22  120/  5/  6   N/A

$$

INZ004-005-014>016-021>024-310400-
NORTH CENTRAL INDIANA

CITY           SKY/WX    TMP DP  RH WIND       PRES   REMARKS
GOSHEN         MOCLDY    20  15  81 S3        30.41F
LOGANSPORT +   CLEAR     23  19  86 S5        30.43F WCI  17
PERU/GRISSOM   MOCLDY    20  17  87 SW2       30.41F
ROCHESTER +    CLEAR     23  19  86 CALM      30.43R
SOUTH BEND     CLEAR     19  13  77 CALM      30.41F
WARSAW +       PTCLDY    19  16  86 CALM      30.42S

$$

INZ006>009-017-018-025>027-310400-
NORTHEAST INDIANA

CITY           SKY/WX    TMP DP  RH WIND       PRES   REMARKS
ANGOLA *+      CLEAR     16  12  86 CALM      30.40S
AUBURN +       PTCLDY    19  14  79 CALM      30.42S
FORT WAYNE     PTCLDY    20  15  81 SW3       30.43F
HUNTINGTON +   CLEAR     17  11  78 CALM      30.42S

$$

INZ028-029-035-036-043>045-051>053-310400-
WEST CENTRAL INDIANA

CITY           SKY/WX    TMP DP  RH WIND       PRES   REMARKS
GREENCASTLE +  CLEAR     23  14  68 CALM      30.43F
LAFAYETTE      CLEAR     21  17  84 CALM      30.43F
TERRE HAUTE    CLEAR     24  17  74 CALM      30.45F

$$

INZ030>032-037>040-046>048-054>057-064-065-310400-
CENTRAL INDIANA

CITY           SKY/WX    TMP DP  RH WIND       PRES   REMARKS
CP ATTERBURY + CLEAR     23  18  80 CALM      30.45S
COLUMBUS       CLEAR     25  19  80 CALM      30.45S
FRANKFORT +    CLEAR     20  18  92 SE3       30.43F
GREENWOOD *+   CLEAR     23  14  68 CALM      30.43F
INDIANAPOLIS   CLEAR     24  16  71 CALM      30.43F
-EAGLE CREEK   CLEAR     21  16  81 CALM      30.42F
KOKOMO *+      CLEAR     23  18  80 SW3       30.42F
MARION +       CLEAR     20  17  89 CALM      30.42F
MT COMFORT *+  CLEAR     21  21 100 CALM      30.43F
SHELBYVILLE    CLEAR     24  18  77 E3        30.43F
ZIONSVILLE +   CLEAR     21  17  83 CALM      30.43F

$$

INZ033-034-041-042-049-050-058-059-310400-
EAST CENTRAL INDIANA

CITY           SKY/WX    TMP DP  RH WIND       PRES   REMARKS
MUNCIE         CLEAR     20  15  81 S3        30.41F

$$

INZ060-061-067>069-081>083-085>088-310400-
SOUTHWEST INDIANA

CITY           SKY/WX    TMP DP  RH WIND       PRES   REMARKS
EVANSVILLE     CLEAR     29  21  72 SW3       30.47F
HUNTINGBURG *+ CLEAR     27  18  69 SE3       30.46S
WASHINGTON +   CLEAR     26  15  64 CALM      30.45S

$$

INZ062-063-066-070>080-084-089>092-310400-
SOUTH CENTRAL AND SOUTHEAST INDIANA

CITY           SKY/WX    TMP DP  RH WIND       PRES   REMARKS
BLOOMINGTON    CLEAR     23  16  74 CALM      30.43F
NORTH VERNON + CLEAR     25  19  80 CALM      30.44F
SEYMOUR +      CLEAR     25  19  80 CALM      30.45S

$$




USA.gov is the U.S. government's official web portal to all federal, state and local government web resources and services.